Torna al catalogo

OT-FOREST-3 BJOERNTBW

AttivoScienzaSSO
NORAD 62682·PAYLOAD·🇩🇪 Germany

Lanciato Jan 14, 2025 da Vandenberg Space Force Base

Loading…

Prossimi Passaggi (prossime 24 ore)

TLE

AggiornatoSource: Space-Track

Epoca: Sep 14, 2026, 04:32 UTC

1 62682U 25009CB  26257.18932781  .00004787  00000-0  19046-3 0  9990
2 62682  97.3847 335.5233 0005811  45.1994 314.9716 15.25729520150000

Traccia OT-FOREST-3 BJOERNTBW in tempo reale con AllMySat

Download on the App Store